Location: Tehachapi Municipal Airport
(35.1300°N, 118.4400°W)
Time: 15:05:40
(UTC-07:00)

Daily predictions for brighter satellites

Satellite Brightness Start Highest point End
(mag) Time Altitude Azimuth Time Altitude Azimuth Time Altitude Azimuth
Cosmos 2346 Rocket 4.4 18:53:16 10° N 18:59:21 81° E 19:05:23 10° S
Cosmos 1441 Rocket 4.1 18:55:52 10° NNW 18:59:32 53° W 19:03:11 10° S
Meteor 1-28 Rocket 3.9 18:56:14 10° NNE 18:59:35 31° E 19:02:55 10° SSE
COSMO-SKYMED 1 2.6 18:55:35 10° NNE 18:59:57 85° ESE 19:04:16 10° SSW
Milstar 3 4.3 18:53:03 10° WSW 19:01:41 63° S 19:18:18 10° ESE
Helios 1B rocket 3.7 18:59:20 10° NE 19:02:21 20° E 19:05:21 10° SE
USA 215 3.7 18:58:30 10° ENE 19:04:38 42° SE 19:10:44 10° SSW
Cosmos 1805 4.1 19:02:03 10° SSE 19:05:29 30° E 19:08:56 10° NNE
Aureole 2 Rocket 4.0 19:01:21 10° SSW 19:05:38 52° WNW 19:09:50 10° N
GPS 2-04 Rocket1 2.7 19:04:19 10° WSW 19:07:40 51° SSE 19:11:07 10° E
Cosmos 1624 Rocket 4.2 19:02:58 10° NNW 19:08:11 77° WSW 19:13:21 10° S
Cosmos 2278 Rocket 3.6 19:03:12 10° NW 19:08:31 43° WSW 19:13:47 10° S
IDEFIX/ARIANE 42P 3.7 19:04:51 10° S 19:09:54 50° W 19:15:00 10° NNW
Cosmos 1072 Rocket 4.4 19:05:27 10° S 19:11:30 72° E 19:17:35 10° N
Cosmos 1953 2.7 19:09:39 10° SSE 19:13:22 39° E 19:17:05 10° NNE
SAR-Lupe-1 4.2 19:13:36 10° SSE 19:17:01 48° ENE 19:20:28 10° N
Gbstr 26 Del rocket 3.7 19:13:15 10° SSW 19:17:05 37° SE 19:21:37 10° ENE
Cosmos 1707 4.5 19:13:36 10° NNW 19:17:11 37° W 19:20:45 10° SSW
Cosmos 2297 3.9 19:11:37 10° NNW 19:17:17 79° WSW 19:22:53 10° SSE
Cosmos 1076 Rocket 3.6 19:13:06 10° N 19:17:21 53° E 19:21:36 10° SSE
Meteor 1-29 4.3 19:14:50 10° NE 19:17:31 20° E 19:20:11 10° SSE
Cosmos 1766 Rocket 3.9 19:13:30 10° N 19:17:40 42° E 19:21:46 10° SSE
ATLAS CENTAUR R/B 3.4 19:16:11 10° NW 19:19:43 29° WSW 19:23:02 10° S
Cosmos 1437 4.3 19:16:51 10° NNW 19:19:57 41° W 19:23:02 10° SSW
NOAA 12 4.2 19:16:28 10° SSE 19:21:34 55° ENE 19:26:43 10° N
Cosmos-2242 3.3 19:18:34 10° SSE 19:22:43 46° E 19:26:56 10° NNE
Cosmos 1943 4.1 19:18:48 10° SSE 19:23:18 25° ESE 19:27:48 10° NE
Cosmos 2369 Rocket 3.8 19:21:19 10° NNE 19:24:48 16° NE 19:27:09 13° E
Cosmos 1603 3.7 19:23:41 10° SSW 19:29:22 73° ESE 19:35:07 10° NNE
Cosmos 1470 3.9 19:27:05 10° SE 19:30:06 22° E 19:33:08 10° NE
ATLAS CENTAUR R/B 3.8 19:26:38 10° WSW 19:31:03 64° NW 19:44:49 10° NE
OAO 3 Rocket 3.1 19:26:46 10° W 19:31:31 88° SSW 19:35:09 18° E
SEDSat Delta rocket 4.3 19:26:04 10° W 19:32:30 64° S 19:37:58 16° ESE
BREEZE-M DEB (TANK) 3.0 19:31:36 10° WNW 19:33:55 44° SW 19:39:19 10° SE
Meteor 1-24 Rocket 4.4 19:29:07 10° NNW 19:34:32 56° W 19:39:46 10° S
Cosmos 1452 Rocket 3.4 19:32:35 10° NNW 19:37:50 74° ENE 19:43:04 10° SSE
Spot 1 4.2 19:35:07 10° SSE 19:39:47 59° ENE 19:44:12 10° N
Cosmos 1674 3.8 19:37:15 10° NNE 19:40:29 24° ENE 19:41:20 22° E
SJ-6B 3.0 19:38:26 10° S 19:42:24 77° W 19:46:28 10° NNW
ASTRO E2 3.6 19:41:19 10° W 19:45:06 39° S 19:47:22 20° SE
ASTEX 1 3.9 19:41:16 10° NNE 19:45:43 34° E 19:50:07 10° SSE
In-Cosmos 22 4.2 19:40:22 10° N 19:46:11 88° E 19:51:54 10° S
Cosmos 2034 Rocket 4.0 19:40:18 10° S 19:46:34 87° W 19:52:55 10° N
Cosmos 1842 Rocket 3.9 19:43:19 10° SSE 19:47:21 40° E 19:51:25 10° NNE
Cosmos 1408 Rocket 3.8 19:45:03 10° N 19:49:23 72° W 19:53:39 10° S
Cosmos 1500 Rocket 4.2 19:46:11 10° NNE 19:50:14 33° E 19:52:00 24° ESE
Cosmos 1758 4.2 19:53:17 10° SSW 19:57:15 52° W 20:01:17 10° N
Cosmos 1420 Rocket 4.0 19:52:38 10° N 19:57:54 61° ENE 20:02:05 16° SSE
ISS -2.2 19:54:58 10° WSW 19:58:04 42° NW 20:00:07 18° NNE
ATLAS 5 CENTAUR R/B 3.9 19:55:57 10° WSW 20:00:02 27° NW 20:04:24 10° N
BREEZE-M TANK 3.8 19:53:07 10° WNW 20:00:25 43° SW 20:02:37 18° SSE
ALOS 2.5 19:59:05 24° SE 20:01:34 47° ENE 20:06:02 10° N
Helios 1A 2.8 19:57:50 10° SSE 20:02:02 79° ENE 20:06:16 10° N
FengYun 1-2 T 4.1 19:57:20 10° SSE 20:02:47 69° ENE 20:08:14 10° N
CENTAUR R/B 2.3 19:57:51 10° SSW 20:03:43 71° ESE 20:10:17 10° NE
Cosmos 1544 3.6 20:00:32 10° SSW 20:04:13 63° W 20:07:57 10° N
Spot 2 Rocket 3.6 20:04:13 10° S 20:09:15 77° WSW 20:14:18 10° NNW
Resurs 1-3 3.5 20:08:49 11° SSE 20:13:07 88° W 20:17:32 10° NNW
Cosmos 1048 Rocket 4.3 20:08:12 10° SSW 20:13:29 70° WNW 20:18:44 10° NNE
HJ-1C 4.4 20:11:30 10° S 20:14:44 47° W 20:18:00 10° NNW
Resurs 01 Rocket 2.2 20:14:44 10° S 20:19:06 56° W 20:23:29 10° NNW
Cosmos 1743 Rocket 3.7 20:15:05 10° N 20:19:30 72° W 20:23:51 10° S
Meteosat 1 Rocket2 4.2 20:17:59 10° WSW 20:24:21 38° S 20:25:14 36° SSE
CZ-2D R/B 3.6 20:26:22 52° NNE 20:26:22 52° NNE 20:29:28 10° N
Cosmos 1174 4.3 20:21:20 10° SSW 20:26:21 69° WNW 20:28:41 25° NNE
Cosmos 158 Rocket 3.8 20:26:26 10° SSW 20:31:18 79° WNW 20:36:12 10° NNE
FENGYUN 3A 3.7 20:32:55 25° S 20:36:12 80° WSW 20:41:36 10° NNW
H-2A R/B 3.5 20:38:40 48° NNW 20:38:40 48° NNW 20:41:32 10° NNW
GP-B 3.8 20:42:28 10° N 20:45:34 44° N 20:45:34 44° N
GPS 2-04 Rocket1 4.2 20:43:52 10° W 20:45:48 31° W 20:45:48 31° W
USA 215 4.0 20:41:23 10° NNE 20:47:37 49° NW 20:53:49 10° WSW
OAO 1 Rocket 4.4 20:44:20 10° W 20:49:28 77° SW 20:49:28 77° SW
SeaSat 1 4.0 20:54:19 24° SSW 20:54:19 24° SSW 20:56:11 10° SSW
Cosmos 2279 Rocket 4.3 20:54:12 51° NE 20:54:12 51° NE 20:58:53 10° NNE
Cosmos 1943 Rocket 3.5 20:59:41 10° N 21:02:41 29° N 21:02:41 29° N
Cosmos 2369 Rocket 2.5 21:03:40 10° NNW 21:09:00 65° W 21:09:00 65° W
Cosmos 1655 Rocket 4.1 21:05:04 10° N 21:10:29 69° N 21:10:29 69° N
Cosmos 2026 Rocket 4.1 21:10:23 10° N 21:16:08 70° WNW 21:16:08 70° WNW
